Wetterdaten: Sonntag, 09.08.2015
Datum Zeit Auen-Temp. Temp gefhlt Luftfeuchte Luftdruck Regen Wind Richtung Richtung Taupunkt Windben
09.08.2015 00:00 17,6 C 17,5 C 73 % 1014,9 hPa 0,0 mm 1,6 km/h (1 Bft) O-NO 67 12,7 C 0,0 km/h (0 Bft)
09.08.2015 00:05 17,4 C 17,3 C 74 % 1014,9 hPa 0,0 mm 0,8 km/h (0 Bft) O-SO 112 12,7 C 0,0 km/h (0 Bft)
09.08.2015 00:10 17,2 C 17,0 C 74 % 1014,9 hPa 0,0 mm 0,3 km/h (0 Bft) SW 225 12,5 C 3,9 km/h (1 Bft)
09.08.2015 00:15 16,9 C 16,8 C 74 % 1014,6 hPa 0,0 mm 0,3 km/h (0 Bft) W-SW 247 12,2 C 0,0 km/h (0 Bft)
09.08.2015 00:20 16,6 C 16,5 C 74 % 1014,6 hPa 0,0 mm 0,3 km/h (0 Bft) N-NO 22 11,9 C 0,0 km/h (0 Bft)
09.08.2015 00:25 16,5 C 16,4 C 74 % 1014,6 hPa 0,0 mm 0,0 km/h (0 Bft) N-NO 22 11,8 C 0,0 km/h (0 Bft)
09.08.2015 00:30 16,4 C 16,2 C 75 % 1014,6 hPa 0,0 mm 0,0 km/h (0 Bft) W-NW 292 12,0 C 0,0 km/h (0 Bft)
09.08.2015 00:35 16,6 C 16,4 C 76 % 1014,9 hPa 0,0 mm 0,0 km/h (0 Bft) O-NO 67 12,3 C 0,0 km/h (0 Bft)
09.08.2015 00:40 16,5 C 16,3 C 76 % 1014,9 hPa 0,0 mm 0,0 km/h (0 Bft) O-NO 67 12,3 C 0,0 km/h (0 Bft)
09.08.2015 00:45 16,5 C 16,3 C 76 % 1014,9 hPa 0,0 mm 0,0 km/h (0 Bft) W 270 12,3 C 0,0 km/h (0 Bft)
09.08.2015 00:50 16,3 C 16,1 C 76 % 1014,9 hPa 0,0 mm 0,5 km/h (0 Bft) W 270 12,1 C 4,1 km/h (1 Bft)
09.08.2015 00:55 16,2 C 16,1 C 76 % 1014,5 hPa 0,0 mm 0,5 km/h (0 Bft) NW 315 12,0 C 0,0 km/h (0 Bft)
09.08.2015 01:00 16,3 C 16,1 C 77 % 1014,5 hPa 0,0 mm 0,3 km/h (0 Bft) O-SO 112 12,3 C 0,0 km/h (0 Bft)
09.08.2015 01:05 16,4 C 16,1 C 77 % 1014,5 hPa 0,0 mm 0,3 km/h (0 Bft) O-SO 112 12,4 C 0,0 km/h (0 Bft)
09.08.2015 01:10 16,6 C 16,3 C 77 % 1014,5 hPa 0,0 mm 0,0 km/h (0 Bft) NO 45 12,5 C 0,0 km/h (0 Bft)
09.08.2015 01:15 16,3 C 16,1 C 77 % 1014,2 hPa 0,0 mm 0,0 km/h (0 Bft) NO 45 12,3 C 0,0 km/h (0 Bft)
09.08.2015 01:20 16,1 C 16,0 C 77 % 1014,2 hPa 0,0 mm 0,0 km/h (0 Bft) W-SW 247 12,1 C 0,0 km/h (0 Bft)
09.08.2015 01:25 16,0 C 15,8 C 77 % 1014,2 hPa 0,0 mm 0,0 km/h (0 Bft) O-NO 67 12,0 C 0,0 km/h (0 Bft)
09.08.2015 01:30 16,0 C 15,8 C 77 % 1014,2 hPa 0,0 mm 0,5 km/h (0 Bft) NW 315 12,0 C 6,5 km/h (2 Bft)
09.08.2015 01:35 16,1 C 15,9 C 77 % 1014,1 hPa 0,0 mm 0,5 km/h (0 Bft) O-NO 67 12,1 C 0,0 km/h (0 Bft)
09.08.2015 01:40 16,1 C 15,9 C 77 % 1014,1 hPa 0,0 mm 0,3 km/h (0 Bft) W-SW 247 12,1 C 3,9 km/h (1 Bft)
09.08.2015 01:45 16,0 C 15,8 C 77 % 1014,1 hPa 0,0 mm 0,3 km/h (0 Bft) W-SW 247 12,0 C 0,0 km/h (0 Bft)
09.08.2015 01:50 16,0 C 15,8 C 77 % 1014,1 hPa 0,0 mm 0,5 km/h (0 Bft) NW 315 12,0 C 3,1 km/h (1 Bft)
09.08.2015 01:55 16,1 C 15,9 C 77 % 1014,2 hPa 0,0 mm 0,8 km/h (0 Bft) N-NW 337 12,1 C 0,0 km/h (0 Bft)
09.08.2015 02:00 16,1 C 15,9 C 77 % 1014,2 hPa 0,0 mm 0,5 km/h (0 Bft) NO 45 12,1 C 0,0 km/h (0 Bft)
09.08.2015 02:05 15,8 C 15,7 C 77 % 1014,2 hPa 0,0 mm 0,0 km/h (0 Bft) N-NW 337 11,8 C 0,0 km/h (0 Bft)
09.08.2015 02:10 15,7 C 15,6 C 78 % 1014,2 hPa 0,0 mm 0,0 km/h (0 Bft) NO 45 11,9 C 0,0 km/h (0 Bft)
09.08.2015 02:15 15,5 C 15,4 C 78 % 1014,0 hPa 0,0 mm 0,0 km/h (0 Bft) O-NO 67 11,7 C 0,0 km/h (0 Bft)
09.08.2015 02:20 15,5 C 15,3 C 78 % 1014,0 hPa 0,0 mm 0,0 km/h (0 Bft) O-NO 67 11,7 C 0,0 km/h (0 Bft)
09.08.2015 02:25 15,5 C 15,3 C 78 % 1014,0 hPa 0,0 mm 0,0 km/h (0 Bft) O-NO 67 11,7 C 0,0 km/h (0 Bft)
09.08.2015 02:30 15,3 C 15,1 C 79 % 1014,0 hPa 0,0 mm 0,0 km/h (0 Bft) NO 45 11,7 C 0,0 km/h (0 Bft)
09.08.2015 02:35 15,1 C 14,9 C 79 % 1013,7 hPa 0,0 mm 0,0 km/h (0 Bft) O-NO 67 11,5 C 0,0 km/h (0 Bft)
09.08.2015 02:40 15,0 C 14,8 C 79 % 1013,7 hPa 0,0 mm 0,0 km/h (0 Bft) W-SW 247 11,4 C 0,0 km/h (0 Bft)
09.08.2015 02:45 14,9 C 14,7 C 79 % 1013,7 hPa 0,0 mm 0,0 km/h (0 Bft) N-NO 22 11,3 C 0,0 km/h (0 Bft)
09.08.2015 02:50 15,1 C 14,9 C 79 % 1013,7 hPa 0,0 mm 0,0 km/h (0 Bft) W-SW 247 11,5 C 0,0 km/h (0 Bft)
09.08.2015 02:55 15,5 C 15,2 C 79 % 1013,7 hPa 0,0 mm 0,3 km/h (0 Bft) NW 315 11,9 C 2,6 km/h (1 Bft)
09.08.2015 03:00 15,7 C 15,5 C 79 % 1013,7 hPa 0,0 mm 0,5 km/h (0 Bft) W-NW 292 12,1 C 0,0 km/h (0 Bft)
09.08.2015 03:05 15,6 C 15,4 C 79 % 1013,7 hPa 0,0 mm 0,5 km/h (0 Bft) W 270 12,0 C 0,0 km/h (0 Bft)
09.08.2015 03:10 15,8 C 15,6 C 79 % 1013,7 hPa 0,0 mm 1,8 km/h (1 Bft) W 270 12,2 C 10,6 km/h (2 Bft)
09.08.2015 03:15 15,8 C 15,6 C 79 % 1013,8 hPa 0,0 mm 2,3 km/h (1 Bft) SW 225 12,2 C 0,0 km/h (0 Bft)
09.08.2015 03:16 15,7 C 15,6 C 79 % 1013,8 hPa 0,0 mm 2,3 km/h (1 Bft) O-SO 112 12,1 C 0,0 km/h (0 Bft)
09.08.2015 03:21 15,4 C 15,3 C 78 % 1013,8 hPa 0,0 mm 1,3 km/h (1 Bft) NW 315 11,6 C 0,0 km/h (0 Bft)
09.08.2015 03:25 15,4 C 15,3 C 78 % 1013,8 hPa 0,0 mm 1,3 km/h (1 Bft) NW 315 11,6 C 0,0 km/h (0 Bft)
09.08.2015 03:30 15,6 C 15,4 C 79 % 1013,8 hPa 0,0 mm 0,8 km/h (0 Bft) S 180 12,0 C 6,0 km/h (2 Bft)
09.08.2015 03:35 15,9 C 15,7 C 79 % 1013,9 hPa 0,0 mm 2,6 km/h (1 Bft) SW 225 12,3 C 8,5 km/h (2 Bft)
09.08.2015 03:40 16,7 C 16,5 C 77 % 1013,9 hPa 0,0 mm 7,8 km/h (2 Bft) S-SW 202 12,6 C 17,1 km/h (3 Bft)
09.08.2015 03:45 16,7 C 16,6 C 75 % 1013,9 hPa 0,0 mm 9,3 km/h (2 Bft) S 180 12,2 C 13,7 km/h (3 Bft)
09.08.2015 03:50 16,4 C 16,4 C 74 % 1013,9 hPa 0,0 mm 6,5 km/h (2 Bft) SO 135 11,8 C 0,0 km/h (0 Bft)
09.08.2015 03:55 16,2 C 16,2 C 75 % 1013,8 hPa 0,0 mm 3,6 km/h (1 Bft) SO 135 11,8 C 0,0 km/h (0 Bft)
09.08.2015 04:00 15,7 C 15,8 C 75 % 1013,8 hPa 0,0 mm 0,0 km/h (0 Bft) SO 135 11,3 C 0,0 km/h (0 Bft)
09.08.2015 04:05 15,4 C 15,5 C 75 % 1013,8 hPa 0,0 mm 0,0 km/h (0 Bft) N-NW 337 11,0 C 0,0 km/h (0 Bft)
09.08.2015 04:10 15,5 C 15,4 C 76 % 1013,8 hPa 0,0 mm 0,3 km/h (0 Bft) SW 225 11,3 C 3,9 km/h (1 Bft)
09.08.2015 04:15 15,5 C 15,3 C 77 % 1013,6 hPa 0,0 mm 0,3 km/h (0 Bft) O-NO 67 11,5 C 0,0 km/h (0 Bft)
09.08.2015 04:20 15,3 C 15,2 C 77 % 1013,6 hPa 0,0 mm 0,3 km/h (0 Bft) SW 225 11,3 C 0,0 km/h (0 Bft)
09.08.2015 04:25 15,1 C 15,0 C 77 % 1013,6 hPa 0,0 mm 0,0 km/h (0 Bft) S 180 11,1 C 0,0 km/h (0 Bft)
09.08.2015 04:30 15,0 C 14,9 C 76 % 1013,6 hPa 0,0 mm 0,0 km/h (0 Bft) O-SO 112 10,8 C 0,0 km/h (0 Bft)
09.08.2015 04:35 15,0 C 14,8 C 78 % 1013,3 hPa 0,0 mm 0,0 km/h (0 Bft) NO 45 11,2 C 0,0 km/h (0 Bft)
09.08.2015 04:40 15,0 C 14,8 C 78 % 1013,3 hPa 0,0 mm 0,3 km/h (0 Bft) S 180 11,2 C 0,0 km/h (0 Bft)
09.08.2015 04:45 14,6 C 14,5 C 78 % 1013,3 hPa 0,0 mm 0,3 km/h (0 Bft) S-SO 157 10,8 C 0,0 km/h (0 Bft)
09.08.2015 04:50 14,3 C 14,3 C 78 % 1013,3 hPa 0,0 mm 0,3 km/h (0 Bft) SO 135 10,5 C 0,0 km/h (0 Bft)
09.08.2015 04:55 14,1 C 14,1 C 78 % 1013,0 hPa 0,0 mm 0,3 km/h (0 Bft) N-NW 337 10,3 C 0,0 km/h (0 Bft)
09.08.2015 05:00 14,0 C 13,9 C 79 % 1013,0 hPa 0,0 mm 0,0 km/h (0 Bft) N-NW 337 10,4 C 0,0 km/h (0 Bft)
09.08.2015 05:05 13,9 C 13,8 C 79 % 1013,0 hPa 0,0 mm 0,3 km/h (0 Bft) NO 45 10,3 C 0,0 km/h (0 Bft)
09.08.2015 05:10 13,6 C 13,5 C 79 % 1013,0 hPa 0,0 mm 0,3 km/h (0 Bft) NO 45 10,0 C 0,0 km/h (0 Bft)
09.08.2015 05:15 13,6 C 13,5 C 80 % 1013,1 hPa 0,0 mm 0,0 km/h (0 Bft) O-NO 67 10,2 C 0,0 km/h (0 Bft)
09.08.2015 05:20 13,6 C 13,4 C 80 % 1013,1 hPa 0,0 mm 0,0 km/h (0 Bft) O-NO 67 10,2 C 0,0 km/h (0 Bft)
09.08.2015 05:25 13,6 C 13,4 C 81 % 1013,1 hPa 0,0 mm 0,0 km/h (0 Bft) O 90 10,4 C 0,0 km/h (0 Bft)
09.08.2015 05:30 13,5 C 13,3 C 81 % 1013,1 hPa 0,0 mm 0,0 km/h (0 Bft) N-NW 337 10,3 C 0,0 km/h (0 Bft)
09.08.2015 05:35 13,6 C 13,4 C 81 % 1013,2 hPa 0,0 mm 0,0 km/h (0 Bft) N-NO 22 10,4 C 0,0 km/h (0 Bft)
09.08.2015 05:40 13,8 C 13,6 C 82 % 1013,2 hPa 0,0 mm 0,3 km/h (0 Bft) N-NO 22 10,8 C 0,0 km/h (0 Bft)
09.08.2015 05:45 13,8 C 13,6 C 82 % 1013,2 hPa 0,0 mm 0,3 km/h (0 Bft) O-NO 67 10,8 C 0,0 km/h (0 Bft)
09.08.2015 05:50 13,8 C 13,6 C 83 % 1013,2 hPa 0,0 mm 0,0 km/h (0 Bft) O-NO 67 11,0 C 0,0 km/h (0 Bft)
09.08.2015 05:55 13,9 C 13,7 C 83 % 1013,1 hPa 0,0 mm 0,3 km/h (0 Bft) S 180 11,1 C 0,0 km/h (0 Bft)
09.08.2015 06:00 13,8 C 13,6 C 83 % 1013,1 hPa 0,0 mm 0,3 km/h (0 Bft) W 270 11,0 C 0,0 km/h (0 Bft)
09.08.2015 06:05 13,6 C 13,5 C 83 % 1013,1 hPa 0,0 mm 0,3 km/h (0 Bft) W-NW 292 10,8 C 0,0 km/h (0 Bft)
09.08.2015 06:10 13,5 C 13,4 C 83 % 1013,1 hPa 0,0 mm 0,0 km/h (0 Bft) NW 315 10,7 C 0,0 km/h (0 Bft)
09.08.2015 06:15 13,4 C 13,3 C 83 % 1013,1 hPa 0,0 mm 0,3 km/h (0 Bft) N-NO 22 10,6 C 0,0 km/h (0 Bft)
09.08.2015 06:20 13,4 C 13,3 C 83 % 1013,1 hPa 0,0 mm 0,3 km/h (0 Bft) NO 45 10,6 C 0,0 km/h (0 Bft)
09.08.2015 06:25 13,4 C 13,3 C 83 % 1013,1 hPa 0,0 mm 0,0 km/h (0 Bft) NO 45 10,6 C 0,0 km/h (0 Bft)
09.08.2015 06:30 13,7 C 13,6 C 84 % 1013,1 hPa 0,0 mm 0,0 km/h (0 Bft) N-NO 22 11,0 C 0,0 km/h (0 Bft)
09.08.2015 06:35 13,9 C 13,8 C 84 % 1012,9 hPa 0,0 mm 0,0 km/h (0 Bft) NO 45 11,2 C 0,0 km/h (0 Bft)
09.08.2015 06:40 14,1 C 14,8 C 84 % 1012,9 hPa 0,0 mm 0,0 km/h (0 Bft) NO 45 11,4 C 0,0 km/h (0 Bft)
09.08.2015 06:45 14,2 C 15,9 C 81 % 1012,9 hPa 0,0 mm 0,0 km/h (0 Bft) NO 45 11,0 C 0,0 km/h (0 Bft)
09.08.2015 06:50 14,4 C 17,8 C 81 % 1012,9 hPa 0,0 mm 0,0 km/h (0 Bft) S 180 11,2 C 0,0 km/h (0 Bft)
09.08.2015 06:55 14,6 C 18,8 C 81 % 1012,9 hPa 0,0 mm 0,0 km/h (0 Bft) N-NW 337 11,4 C 0,0 km/h (0 Bft)
09.08.2015 07:00 14,9 C 20,2 C 81 % 1012,9 hPa 0,0 mm 0,0 km/h (0 Bft) N 360 11,7 C 0,0 km/h (0 Bft)
09.08.2015 07:05 15,0 C 21,0 C 81 % 1012,9 hPa 0,0 mm 0,0 km/h (0 Bft) N 360 11,8 C 0,0 km/h (0 Bft)
09.08.2015 07:10 15,2 C 21,3 C 81 % 1012,9 hPa 0,0 mm 0,0 km/h (0 Bft) O-NO 67 12,0 C 0,0 km/h (0 Bft)
09.08.2015 07:15 15,4 C 21,7 C 80 % 1012,7 hPa 0,0 mm 0,0 km/h (0 Bft) O-NO 67 12,0 C 0,0 km/h (0 Bft)
09.08.2015 07:20 15,8 C 22,5 C 80 % 1012,7 hPa 0,0 mm 0,0 km/h (0 Bft) O-NO 67 12,4 C 0,0 km/h (0 Bft)
09.08.2015 07:25 16,0 C 22,8 C 79 % 1012,7 hPa 0,0 mm 0,0 km/h (0 Bft) O-NO 67 12,4 C 0,0 km/h (0 Bft)
09.08.2015 07:30 16,4 C 22,2 C 79 % 1012,7 hPa 0,0 mm 0,0 km/h (0 Bft) NO 45 12,7 C 0,0 km/h (0 Bft)
09.08.2015 07:35 16,5 C 22,1 C 78 % 1012,3 hPa 0,0 mm 0,0 km/h (0 Bft) NO 45 12,6 C 0,0 km/h (0 Bft)
09.08.2015 07:40 17,2 C 23,2 C 77 % 1012,3 hPa 0,0 mm 0,0 km/h (0 Bft) NO 45 13,1 C 0,0 km/h (0 Bft)
09.08.2015 07:45 17,6 C 23,5 C 77 % 1012,3 hPa 0,0 mm 0,0 km/h (0 Bft) NO 45 13,5 C 0,0 km/h (0 Bft)
09.08.2015 07:50 18,4 C 23,7 C 76 % 1012,3 hPa 0,0 mm 0,0 km/h (0 Bft) NO 45 14,1 C 0,0 km/h (0 Bft)
09.08.2015 07:55 18,8 C 24,4 C 75 % 1012,3 hPa 0,0 mm 0,0 km/h (0 Bft) NO 45 14,3 C 0,0 km/h (0 Bft)
09.08.2015 08:00 19,3 C 25,5 C 73 % 1012,3 hPa 0,0 mm 0,0 km/h (0 Bft) O 90 14,3 C 0,0 km/h (0 Bft)
09.08.2015 08:05 19,2 C 25,4 C 73 % 1012,3 hPa 0,0 mm 0,0 km/h (0 Bft) O 90 14,2 C 0,0 km/h (0 Bft)
09.08.2015 08:10 19,3 C 25,3 C 73 % 1012,3 hPa 0,0 mm 0,0 km/h (0 Bft) NO 45 14,3 C 0,0 km/h (0 Bft)
09.08.2015 08:15 19,3 C 25,4 C 73 % 1012,2 hPa 0,0 mm 0,0 km/h (0 Bft) NO 45 14,3 C 0,0 km/h (0 Bft)
09.08.2015 08:20 19,8 C 26,5 C 71 % 1012,2 hPa 0,0 mm 0,0 km/h (0 Bft) NO 45 14,4 C 0,0 km/h (0 Bft)
09.08.2015 08:25 20,4 C 27,3 C 71 % 1012,2 hPa 0,0 mm 0,0 km/h (0 Bft) N-NO 22 15,0 C 0,0 km/h (0 Bft)
09.08.2015 08:30 21,5 C 28,5 C 70 % 1012,2 hPa 0,0 mm 0,0 km/h (0 Bft) W-NW 292 15,8 C 0,0 km/h (0 Bft)
09.08.2015 08:35 21,5 C 29,0 C 68 % 1012,5 hPa 0,0 mm 0,0 km/h (0 Bft) O 90 15,3 C 0,0 km/h (0 Bft)
09.08.2015 08:40 21,3 C 30,0 C 67 % 1012,5 hPa 0,0 mm 0,0 km/h (0 Bft) O 90 14,9 C 0,0 km/h (0 Bft)
09.08.2015 08:45 21,7 C 30,1 C 67 % 1012,5 hPa 0,0 mm 0,0 km/h (0 Bft) O 90 15,3 C 0,0 km/h (0 Bft)
09.08.2015 08:50 22,1 C 30,6 C 66 % 1012,5 hPa 0,0 mm 0,0 km/h (0 Bft) O-NO 67 15,4 C 0,0 km/h (0 Bft)
09.08.2015 08:55 22,4 C 31,1 C 66 % 1012,8 hPa 0,0 mm 0,0 km/h (0 Bft) O-NO 67 15,7 C 0,0 km/h (0 Bft)
09.08.2015 09:00 22,2 C 30,8 C 66 % 1012,8 hPa 0,0 mm 0,0 km/h (0 Bft) NO 45 15,5 C 3,4 km/h (1 Bft)
09.08.2015 09:05 22,3 C 29,7 C 66 % 1012,8 hPa 0,0 mm 0,3 km/h (0 Bft) O-NO 67 15,6 C 2,6 km/h (1 Bft)
09.08.2015 09:10 22,7 C 29,5 C 66 % 1012,8 hPa 0,0 mm 0,3 km/h (0 Bft) NO 45 16,0 C 0,0 km/h (0 Bft)
09.08.2015 09:15 22,8 C 29,1 C 66 % 1013,2 hPa 0,0 mm 0,3 km/h (0 Bft) N-NW 337 16,1 C 3,9 km/h (1 Bft)
09.08.2015 09:20 23,5 C 29,7 C 64 % 1013,2 hPa 0,0 mm 0,5 km/h (0 Bft) O-NO 67 16,3 C 0,0 km/h (0 Bft)
09.08.2015 09:21 24,0 C 30,2 C 63 % 1013,2 hPa 0,0 mm 0,5 km/h (0 Bft) NO 45 16,5 C 0,0 km/h (0 Bft)
09.08.2015 09:22 24,0 C 30,2 C 63 % 1013,2 hPa 0,0 mm 0,5 km/h (0 Bft) NO 45 16,5 C 0,0 km/h (0 Bft)
09.08.2015 09:25 24,0 C 30,2 C 63 % 1013,2 hPa 0,0 mm 0,5 km/h (0 Bft) NO 45 16,5 C 0,0 km/h (0 Bft)
09.08.2015 09:30 24,3 C 31,2 C 62 % 1013,2 hPa 0,0 mm 1,3 km/h (1 Bft) NW 315 16,5 C 0,0 km/h (0 Bft)
09.08.2015 09:35 24,7 C 31,9 C 62 % 1012,9 hPa 0,0 mm 1,3 km/h (1 Bft) NO 45 16,9 C 2,6 km/h (1 Bft)
09.08.2015 09:40 24,9 C 32,1 C 60 % 1012,9 hPa 0,0 mm 2,1 km/h (1 Bft) N-NO 22 16,6 C 5,4 km/h (1 Bft)
09.08.2015 09:45 25,0 C 31,8 C 59 % 1012,9 hPa 0,0 mm 3,9 km/h (1 Bft) NO 45 16,4 C 4,4 km/h (1 Bft)
09.08.2015 09:50 25,0 C 31,3 C 59 % 1012,9 hPa 0,0 mm 5,2 km/h (1 Bft) NO 45 16,4 C 4,7 km/h (1 Bft)
09.08.2015 09:55 25,3 C 31,3 C 59 % 1013,1 hPa 0,0 mm 5,2 km/h (1 Bft) N-NO 22 16,7 C 4,7 km/h (1 Bft)
09.08.2015 10:00 25,5 C 31,4 C 58 % 1013,1 hPa 0,0 mm 4,9 km/h (1 Bft) N-NO 22 16,6 C 14,2 km/h (3 Bft)
09.08.2015 10:05 25,5 C 31,2 C 58 % 1013,1 hPa 0,0 mm 5,4 km/h (1 Bft) N-NO 22 16,6 C 7,3 km/h (2 Bft)
09.08.2015 10:10 25,6 C 31,0 C 58 % 1013,1 hPa 0,0 mm 7,5 km/h (2 Bft) N-NO 22 16,7 C 10,6 km/h (2 Bft)
09.08.2015 10:15 25,5 C 30,9 C 57 % 1013,4 hPa 0,0 mm 7,0 km/h (2 Bft) NO 45 16,3 C 10,6 km/h (2 Bft)
09.08.2015 10:20 25,5 C 30,6 C 56 % 1013,4 hPa 0,0 mm 7,8 km/h (2 Bft) O-NO 67 16,1 C 17,9 km/h (3 Bft)
09.08.2015 10:25 25,5 C 30,4 C 56 % 1013,4 hPa 0,0 mm 8,8 km/h (2 Bft) NO 45 16,1 C 8,5 km/h (2 Bft)
09.08.2015 10:30 25,6 C 30,3 C 56 % 1013,4 hPa 0,0 mm 9,3 km/h (2 Bft) O-NO 67 16,2 C 18,6 km/h (3 Bft)
09.08.2015 10:35 25,8 C 30,6 C 57 % 1013,5 hPa 0,0 mm 8,0 km/h (2 Bft) W-NW 292 16,6 C 12,2 km/h (2 Bft)
09.08.2015 10:40 25,9 C 30,6 C 56 % 1013,5 hPa 0,0 mm 9,1 km/h (2 Bft) N-NO 22 16,4 C 14,0 km/h (3 Bft)
09.08.2015 10:45 25,8 C 30,3 C 56 % 1013,5 hPa 0,0 mm 11,1 km/h (2 Bft) N-NW 337 16,3 C 7,5 km/h (2 Bft)
09.08.2015 10:50 25,7 C 30,0 C 56 % 1013,5 hPa 0,0 mm 12,4 km/h (3 Bft) NO 45 16,2 C 25,4 km/h (4 Bft)
09.08.2015 10:55 25,7 C 29,9 C 56 % 1013,6 hPa 0,0 mm 12,2 km/h (2 Bft) NO 45 16,2 C 17,9 km/h (3 Bft)
09.08.2015 11:00 25,8 C 30,1 C 56 % 1013,6 hPa 0,0 mm 10,6 km/h (2 Bft) N-NO 22 16,3 C 13,2 km/h (3 Bft)
09.08.2015 11:05 25,9 C 30,2 C 56 % 1013,6 hPa 0,0 mm 11,1 km/h (2 Bft) N-NO 22 16,4 C 12,7 km/h (3 Bft)
09.08.2015 11:10 25,8 C 30,1 C 56 % 1013,6 hPa 0,0 mm 11,4 km/h (2 Bft) N-NW 337 16,3 C 27,4 km/h (4 Bft)
09.08.2015 11:15 26,0 C 30,2 C 54 % 1013,8 hPa 0,0 mm 11,1 km/h (2 Bft) N-NO 22 16,0 C 17,1 km/h (3 Bft)
09.08.2015 11:20 26,3 C 30,3 C 55 % 1013,8 hPa 0,0 mm 9,8 km/h (2 Bft) NO 45 16,5 C 12,4 km/h (3 Bft)
09.08.2015 11:25 26,4 C 30,7 C 53 % 1013,8 hPa 0,0 mm 9,1 km/h (2 Bft) O-SO 112 16,0 C 8,3 km/h (2 Bft)
09.08.2015 11:30 26,4 C 30,7 C 54 % 1013,8 hPa 0,0 mm 8,5 km/h (2 Bft) N-NO 22 16,3 C 4,1 km/h (1 Bft)
09.08.2015 11:35 26,8 C 31,0 C 53 % 1013,9 hPa 0,0 mm 9,1 km/h (2 Bft) S-SW 202 16,4 C 11,4 km/h (2 Bft)
09.08.2015 11:40 26,6 C 30,9 C 53 % 1013,9 hPa 0,0 mm 9,6 km/h (2 Bft) N-NO 22 16,2 C 14,5 km/h (3 Bft)
09.08.2015 11:45 26,8 C 31,0 C 52 % 1013,9 hPa 0,0 mm 9,3 km/h (2 Bft) N-NW 337 16,1 C 7,0 km/h (2 Bft)
09.08.2015 11:50 26,9 C 31,3 C 50 % 1013,9 hPa 0,0 mm 9,6 km/h (2 Bft) N-NO 22 15,6 C 16,1 km/h (3 Bft)
09.08.2015 11:55 26,9 C 31,2 C 51 % 1013,8 hPa 0,0 mm 9,3 km/h (2 Bft) NO 45 15,9 C 4,4 km/h (1 Bft)
09.08.2015 12:00 27,0 C 31,2 C 50 % 1013,8 hPa 0,0 mm 10,1 km/h (2 Bft) N-NO 22 15,7 C 16,1 km/h (3 Bft)
09.08.2015 12:05 27,1 C 31,1 C 50 % 1013,8 hPa 0,0 mm 10,6 km/h (2 Bft) NO 45 15,8 C 12,2 km/h (2 Bft)
09.08.2015 12:10 27,5 C 31,7 C 50 % 1013,8 hPa 0,0 mm 8,8 km/h (2 Bft) NO 45 16,1 C 11,9 km/h (2 Bft)
09.08.2015 12:15 27,4 C 31,7 C 50 % 1013,6 hPa 0,0 mm 8,3 km/h (2 Bft) O-NO 67 16,0 C 11,9 km/h (2 Bft)
09.08.2015 12:20 27,6 C 31,8 C 50 % 1013,6 hPa 0,0 mm 8,5 km/h (2 Bft) O-NO 67 16,2 C 19,4 km/h (3 Bft)
09.08.2015 12:25 27,7 C 31,7 C 50 % 1013,6 hPa 0,0 mm 8,5 km/h (2 Bft) N 360 16,3 C 19,4 km/h (3 Bft)
09.08.2015 12:30 27,9 C 31,8 C 50 % 1013,6 hPa 0,0 mm 9,6 km/h (2 Bft) N-NW 337 16,5 C 9,3 km/h (2 Bft)
09.08.2015 12:35 28,0 C 31,9 C 49 % 1013,5 hPa 0,0 mm 9,6 km/h (2 Bft) O-NO 67 16,3 C 16,6 km/h (3 Bft)
09.08.2015 12:40 28,2 C 32,0 C 48 % 1013,5 hPa 0,0 mm 9,3 km/h (2 Bft) O-NO 67 16,1 C 13,7 km/h (3 Bft)
09.08.2015 12:45 28,3 C 32,0 C 48 % 1013,5 hPa 0,0 mm 10,1 km/h (2 Bft) O 90 16,2 C 6,0 km/h (2 Bft)
09.08.2015 12:50 28,6 C 32,6 C 48 % 1013,5 hPa 0,0 mm 9,3 km/h (2 Bft) N-NO 22 16,5 C 8,8 km/h (2 Bft)
09.08.2015 12:55 28,8 C 33,0 C 48 % 1013,3 hPa 0,0 mm 7,3 km/h (2 Bft) O-SO 112 16,7 C 6,0 km/h (2 Bft)
09.08.2015 13:00 28,9 C 33,2 C 47 % 1013,3 hPa 0,0 mm 7,5 km/h (2 Bft) N 360 16,4 C 16,1 km/h (3 Bft)
09.08.2015 13:05 29,0 C 33,1 C 47 % 1013,3 hPa 0,0 mm 9,3 km/h (2 Bft) N-NO 22 16,5 C 17,3 km/h (3 Bft)
09.08.2015 13:10 29,1 C 33,1 C 47 % 1013,3 hPa 0,0 mm 9,6 km/h (2 Bft) O-NO 67 16,6 C 10,1 km/h (2 Bft)
09.08.2015 13:15 29,3 C 33,2 C 46 % 1013,3 hPa 0,0 mm 9,3 km/h (2 Bft) O-NO 67 16,5 C 11,9 km/h (2 Bft)
09.08.2015 13:20 29,3 C 33,4 C 46 % 1013,3 hPa 0,0 mm 9,1 km/h (2 Bft) N-NO 22 16,5 C 8,8 km/h (2 Bft)
09.08.2015 13:25 29,3 C 33,3 C 47 % 1013,3 hPa 0,0 mm 9,3 km/h (2 Bft) NO 45 16,8 C 13,7 km/h (3 Bft)
09.08.2015 13:30 29,5 C 33,0 C 46 % 1013,3 hPa 0,0 mm 9,8 km/h (2 Bft) N 360 16,6 C 14,5 km/h (3 Bft)
09.08.2015 13:35 29,5 C 32,6 C 47 % 1013,0 hPa 0,0 mm 10,1 km/h (2 Bft) N 360 17,0 C 12,2 km/h (2 Bft)
09.08.2015 13:40 29,6 C 31,9 C 46 % 1013,0 hPa 0,0 mm 10,4 km/h (2 Bft) O-NO 67 16,7 C 6,0 km/h (2 Bft)
09.08.2015 13:45 29,7 C 31,5 C 46 % 1013,0 hPa 0,0 mm 10,4 km/h (2 Bft) N-NO 22 16,8 C 15,8 km/h (3 Bft)
09.08.2015 13:50 29,7 C 31,4 C 47 % 1013,0 hPa 0,0 mm 9,1 km/h (2 Bft) O-NO 67 17,2 C 7,5 km/h (2 Bft)
09.08.2015 13:55 29,8 C 31,7 C 48 % 1012,9 hPa 0,0 mm 9,3 km/h (2 Bft) NO 45 17,6 C 18,6 km/h (3 Bft)
09.08.2015 14:00 29,9 C 32,5 C 47 % 1012,9 hPa 0,0 mm 9,3 km/h (2 Bft) N-NO 22 17,3 C 16,8 km/h (3 Bft)
09.08.2015 14:05 29,8 C 32,8 C 46 % 1012,9 hPa 0,0 mm 10,1 km/h (2 Bft) N-NO 22 16,9 C 14,2 km/h (3 Bft)
09.08.2015 14:10 29,7 C 32,9 C 47 % 1012,9 hPa 0,0 mm 12,2 km/h (2 Bft) NW 315 17,2 C 28,2 km/h (4 Bft)
09.08.2015 14:15 30,1 C 33,5 C 47 % 1012,6 hPa 0,0 mm 10,9 km/h (2 Bft) N-NW 337 17,5 C 14,0 km/h (3 Bft)
09.08.2015 14:20 30,1 C 33,4 C 47 % 1012,6 hPa 0,0 mm 10,6 km/h (2 Bft) NO 45 17,5 C 30,3 km/h (5 Bft)
09.08.2015 14:25 30,1 C 33,4 C 47 % 1012,6 hPa 0,0 mm 12,7 km/h (3 Bft) N-NO 22 17,5 C 23,8 km/h (4 Bft)
09.08.2015 14:30 30,0 C 33,2 C 46 % 1012,6 hPa 0,0 mm 12,4 km/h (3 Bft) SO 135 17,1 C 19,9 km/h (4 Bft)
09.08.2015 14:35 29,9 C 33,1 C 46 % 1012,6 hPa 0,0 mm 12,9 km/h (3 Bft) N-NO 22 17,0 C 15,3 km/h (3 Bft)
09.08.2015 14:40 30,1 C 33,4 C 45 % 1012,6 hPa 0,0 mm 12,7 km/h (3 Bft) N-NO 22 16,8 C 14,8 km/h (3 Bft)
09.08.2015 14:45 30,1 C 33,4 C 45 % 1012,6 hPa 0,0 mm 13,5 km/h (3 Bft) N-NO 22 16,8 C 20,5 km/h (4 Bft)
09.08.2015 14:50 30,2 C 33,3 C 45 % 1012,6 hPa 0,0 mm 14,5 km/h (3 Bft) N-NO 22 16,9 C 11,9 km/h (2 Bft)
09.08.2015 14:55 30,3 C 33,4 C 45 % 1012,1 hPa 0,0 mm 12,9 km/h (3 Bft) N-NO 22 17,0 C 7,8 km/h (2 Bft)
09.08.2015 15:00 30,8 C 34,1 C 45 % 1012,1 hPa 0,0 mm 8,8 km/h (2 Bft) NO 45 17,5 C 6,2 km/h (2 Bft)
09.08.2015 15:05 30,6 C 34,1 C 44 % 1012,1 hPa 0,0 mm 9,6 km/h (2 Bft) N-NO 22 16,9 C 14,2 km/h (3 Bft)
09.08.2015 15:10 30,8 C 34,4 C 44 % 1012,1 hPa 0,0 mm 9,6 km/h (2 Bft) N 360 17,1 C 16,1 km/h (3 Bft)
09.08.2015 15:15 30,8 C 34,5 C 44 % 1011,8 hPa 0,0 mm 8,5 km/h (2 Bft) N-NW 337 17,1 C 12,2 km/h (2 Bft)
09.08.2015 15:20 30,8 C 34,5 C 44 % 1011,8 hPa 0,0 mm 9,3 km/h (2 Bft) N 360 17,1 C 9,6 km/h (2 Bft)
09.08.2015 15:21 30,8 C 34,5 C 43 % 1011,8 hPa 0,0 mm 9,3 km/h (2 Bft) N-NW 337 16,7 C 10,1 km/h (2 Bft)
09.08.2015 15:23 30,8 C 34,5 C 43 % 1011,8 hPa 0,0 mm 9,3 km/h (2 Bft) N-NW 337 16,7 C 10,1 km/h (2 Bft)
09.08.2015 15:25 30,8 C 34,5 C 43 % 1011,8 hPa 0,0 mm 9,3 km/h (2 Bft) N-NW 337 16,7 C 10,1 km/h (2 Bft)
09.08.2015 15:30 30,8 C 34,3 C 44 % 1011,8 hPa 0,0 mm 10,4 km/h (2 Bft) N-NO 22 17,1 C 16,8 km/h (3 Bft)
09.08.2015 15:35 30,8 C 34,2 C 43 % 1011,7 hPa 0,0 mm 12,2 km/h (2 Bft) N-NO 22 16,7 C 14,0 km/h (3 Bft)
09.08.2015 15:40 31,0 C 34,4 C 43 % 1011,7 hPa 0,0 mm 10,9 km/h (2 Bft) N 360 16,9 C 7,5 km/h (2 Bft)
09.08.2015 15:45 31,1 C 34,6 C 44 % 1011,7 hPa 0,0 mm 9,1 km/h (2 Bft) SO 135 17,4 C 5,7 km/h (1 Bft)
09.08.2015 15:50 30,9 C 34,6 C 42 % 1011,7 hPa 0,0 mm 9,8 km/h (2 Bft) O-NO 67 16,5 C 10,4 km/h (2 Bft)
09.08.2015 15:55 30,8 C 34,5 C 43 % 1011,5 hPa 0,0 mm 9,3 km/h (2 Bft) N-NO 22 16,7 C 13,7 km/h (3 Bft)
09.08.2015 16:00 30,7 C 34,5 C 42 % 1011,5 hPa 0,0 mm 9,3 km/h (2 Bft) NO 45 16,3 C 16,6 km/h (3 Bft)
09.08.2015 16:05 30,5 C 34,2 C 42 % 1011,5 hPa 0,0 mm 10,6 km/h (2 Bft) N-NO 22 16,1 C 2,8 km/h (1 Bft)
09.08.2015 16:10 30,6 C 34,4 C 42 % 1011,5 hPa 0,0 mm 10,4 km/h (2 Bft) O-SO 112 16,2 C 8,0 km/h (2 Bft)
09.08.2015 16:15 30,4 C 34,5 C 42 % 1011,2 hPa 0,0 mm 7,8 km/h (2 Bft) N-NO 22 16,0 C 11,9 km/h (2 Bft)
09.08.2015 16:20 30,3 C 34,8 C 43 % 1011,2 hPa 0,0 mm 7,5 km/h (2 Bft) S-SW 202 16,3 C 2,8 km/h (1 Bft)
09.08.2015 16:25 30,1 C 34,8 C 43 % 1011,2 hPa 0,0 mm 7,8 km/h (2 Bft) O-NO 67 16,1 C 4,9 km/h (1 Bft)
09.08.2015 16:30 30,0 C 34,5 C 42 % 1011,2 hPa 0,0 mm 9,8 km/h (2 Bft) N-NO 22 15,7 C 16,8 km/h (3 Bft)
09.08.2015 16:35 30,0 C 34,3 C 42 % 1011,0 hPa 0,0 mm 11,1 km/h (2 Bft) O-NO 67 15,7 C 6,2 km/h (2 Bft)
09.08.2015 16:40 30,0 C 34,7 C 44 % 1011,0 hPa 0,0 mm 8,0 km/h (2 Bft) N-NO 22 16,4 C 15,0 km/h (3 Bft)
09.08.2015 16:45 30,0 C 34,8 C 44 % 1011,0 hPa 0,0 mm 7,3 km/h (2 Bft) N-NO 22 16,4 C 16,1 km/h (3 Bft)
09.08.2015 16:50 29,2 C 32,9 C 44 % 1011,0 hPa 0,0 mm 8,5 km/h (2 Bft) N-NO 22 15,7 C 6,0 km/h (2 Bft)
09.08.2015 16:55 29,4 C 31,9 C 44 % 1010,9 hPa 0,0 mm 8,5 km/h (2 Bft) NO 45 15,8 C 16,8 km/h (3 Bft)
09.08.2015 17:00 29,5 C 31,2 C 44 % 1010,9 hPa 0,0 mm 6,5 km/h (2 Bft) O-NO 67 15,9 C 7,3 km/h (2 Bft)
09.08.2015 17:05 29,6 C 31,0 C 44 % 1010,9 hPa 0,0 mm 6,5 km/h (2 Bft) N-NO 22 16,0 C 14,8 km/h (3 Bft)
09.08.2015 17:10 29,7 C 30,9 C 44 % 1010,9 hPa 0,0 mm 8,3 km/h (2 Bft) NO 45 16,1 C 14,2 km/h (3 Bft)
09.08.2015 17:15 29,5 C 30,7 C 43 % 1010,7 hPa 0,0 mm 9,3 km/h (2 Bft) N-NO 22 15,6 C 11,7 km/h (2 Bft)
09.08.2015 17:20 29,5 C 30,6 C 43 % 1010,7 hPa 0,0 mm 10,1 km/h (2 Bft) O-NO 67 15,6 C 12,4 km/h (3 Bft)
09.08.2015 17:25 29,4 C 30,4 C 44 % 1010,7 hPa 0,0 mm 9,3 km/h (2 Bft) N-NW 337 15,8 C 8,8 km/h (2 Bft)
09.08.2015 17:30 29,4 C 30,4 C 43 % 1010,7 hPa 0,0 mm 9,3 km/h (2 Bft) NW 315 15,5 C 23,0 km/h (4 Bft)
09.08.2015 17:35 29,5 C 30,4 C 43 % 1010,6 hPa 0,0 mm 11,1 km/h (2 Bft) N-NW 337 15,6 C 10,4 km/h (2 Bft)
09.08.2015 17:40 29,3 C 30,3 C 42 % 1010,6 hPa 0,0 mm 12,4 km/h (3 Bft) NO 45 15,0 C 20,7 km/h (4 Bft)
09.08.2015 17:45 29,3 C 30,3 C 41 % 1010,6 hPa 0,0 mm 11,7 km/h (2 Bft) N-NO 22 14,7 C 14,0 km/h (3 Bft)
09.08.2015 17:50 29,3 C 30,2 C 42 % 1010,6 hPa 0,0 mm 10,4 km/h (2 Bft) N-NW 337 15,0 C 10,6 km/h (2 Bft)
09.08.2015 17:55 29,2 C 30,2 C 42 % 1010,5 hPa 0,0 mm 7,3 km/h (2 Bft) N-NO 22 14,9 C 0,0 km/h (0 Bft)
09.08.2015 18:00 29,1 C 30,2 C 43 % 1010,5 hPa 0,0 mm 6,2 km/h (2 Bft) S 180 15,2 C 7,3 km/h (2 Bft)
09.08.2015 18:05 29,0 C 30,1 C 43 % 1010,5 hPa 0,0 mm 7,0 km/h (2 Bft) N 360 15,1 C 7,8 km/h (2 Bft)
09.08.2015 18:10 29,0 C 29,9 C 44 % 1010,5 hPa 0,0 mm 9,6 km/h (2 Bft) S 180 15,5 C 16,6 km/h (3 Bft)
09.08.2015 18:15 29,0 C 29,8 C 44 % 1010,3 hPa 0,0 mm 9,8 km/h (2 Bft) N-NO 22 15,5 C 11,7 km/h (2 Bft)
09.08.2015 18:20 28,8 C 29,7 C 45 % 1010,3 hPa 0,0 mm 8,3 km/h (2 Bft) O-NO 67 15,7 C 10,9 km/h (2 Bft)
09.08.2015 18:25 28,8 C 29,6 C 45 % 1010,3 hPa 0,0 mm 8,0 km/h (2 Bft) NO 45 15,7 C 12,7 km/h (3 Bft)
09.08.2015 18:30 28,7 C 29,5 C 45 % 1010,3 hPa 0,0 mm 9,1 km/h (2 Bft) O-NO 67 15,6 C 17,3 km/h (3 Bft)
09.08.2015 18:35 28,5 C 29,3 C 46 % 1010,4 hPa 0,0 mm 8,5 km/h (2 Bft) N-NW 337 15,7 C 11,4 km/h (2 Bft)
09.08.2015 18:40 28,2 C 29,1 C 46 % 1010,4 hPa 0,0 mm 7,8 km/h (2 Bft) NO 45 15,5 C 11,9 km/h (2 Bft)
09.08.2015 18:45 28,1 C 28,9 C 46 % 1010,4 hPa 0,0 mm 7,0 km/h (2 Bft) N-NO 22 15,4 C 9,3 km/h (2 Bft)
09.08.2015 18:50 28,0 C 28,6 C 47 % 1010,4 hPa 0,0 mm 7,0 km/h (2 Bft) N-NO 22 15,6 C 7,3 km/h (2 Bft)
09.08.2015 18:55 27,9 C 28,6 C 47 % 1010,1 hPa 0,0 mm 7,3 km/h (2 Bft) N-NO 22 15,5 C 10,6 km/h (2 Bft)
09.08.2015 19:00 27,8 C 28,4 C 47 % 1010,1 hPa 0,0 mm 6,5 km/h (2 Bft) O-NO 67 15,4 C 5,4 km/h (1 Bft)
09.08.2015 19:05 27,8 C 28,4 C 47 % 1010,1 hPa 0,0 mm 5,2 km/h (1 Bft) SO 135 15,4 C 5,2 km/h (1 Bft)
09.08.2015 19:10 27,5 C 28,3 C 48 % 1010,1 hPa 0,0 mm 3,9 km/h (1 Bft) N-NO 22 15,5 C 19,2 km/h (3 Bft)
09.08.2015 19:15 27,4 C 28,2 C 48 % 1010,2 hPa 0,0 mm 4,1 km/h (1 Bft) N-NO 22 15,4 C 6,7 km/h (2 Bft)
09.08.2015 19:20 26,9 C 27,8 C 49 % 1010,2 hPa 0,0 mm 2,3 km/h (1 Bft) N-NO 22 15,3 C 0,0 km/h (0 Bft)
09.08.2015 19:25 26,8 C 27,5 C 49 % 1010,2 hPa 0,0 mm 1,0 km/h (0 Bft) N-NO 22 15,2 C 7,3 km/h (2 Bft)
09.08.2015 19:30 26,6 C 27,0 C 50 % 1010,2 hPa 0,0 mm 1,3 km/h (1 Bft) O-SO 112 15,3 C 3,1 km/h (1 Bft)
09.08.2015 19:35 26,5 C 26,8 C 50 % 1010,5 hPa 0,0 mm 1,0 km/h (0 Bft) O-SO 112 15,2 C 0,0 km/h (0 Bft)
09.08.2015 19:40 26,1 C 26,5 C 52 % 1010,5 hPa 0,0 mm 0,3 km/h (0 Bft) S-SO 157 15,5 C 0,0 km/h (0 Bft)
09.08.2015 19:45 25,8 C 26,3 C 56 % 1010,5 hPa 0,0 mm 0,0 km/h (0 Bft) SW 225 16,3 C 0,0 km/h (0 Bft)
09.08.2015 19:50 25,6 C 26,0 C 57 % 1010,5 hPa 0,0 mm 0,8 km/h (0 Bft) S-SW 202 16,4 C 2,8 km/h (1 Bft)
09.08.2015 19:55 25,7 C 25,9 C 56 % 1010,8 hPa 0,0 mm 2,8 km/h (1 Bft) W-SW 247 16,2 C 7,0 km/h (2 Bft)
09.08.2015 20:00 25,6 C 25,8 C 56 % 1010,8 hPa 0,0 mm 4,7 km/h (1 Bft) SW 225 16,2 C 0,0 km/h (0 Bft)
09.08.2015 20:05 25,4 C 25,7 C 56 % 1010,8 hPa 0,0 mm 5,4 km/h (1 Bft) W-SW 247 16,0 C 7,8 km/h (2 Bft)
09.08.2015 20:10 25,1 C 25,3 C 56 % 1010,8 hPa 0,0 mm 7,0 km/h (2 Bft) SW 225 15,7 C 10,1 km/h (2 Bft)
09.08.2015 20:15 24,8 C 25,0 C 57 % 1010,9 hPa 0,0 mm 8,3 km/h (2 Bft) W 270 15,7 C 7,8 km/h (2 Bft)
09.08.2015 20:20 24,5 C 24,8 C 59 % 1010,9 hPa 0,0 mm 8,3 km/h (2 Bft) S-SO 157 15,9 C 12,9 km/h (3 Bft)
09.08.2015 20:25 24,2 C 24,5 C 59 % 1010,9 hPa 0,0 mm 6,5 km/h (2 Bft) W 270 15,7 C 12,2 km/h (2 Bft)
09.08.2015 20:30 24,1 C 24,1 C 61 % 1010,9 hPa 0,0 mm 9,6 km/h (2 Bft) W 270 16,1 C 12,2 km/h (2 Bft)
09.08.2015 20:35 23,8 C 23,9 C 62 % 1010,8 hPa 0,0 mm 10,1 km/h (2 Bft) W-NW 292 16,1 C 12,2 km/h (2 Bft)
09.08.2015 20:40 23,6 C 23,6 C 63 % 1010,8 hPa 0,0 mm 7,5 km/h (2 Bft) W 270 16,1 C 13,5 km/h (3 Bft)
09.08.2015 20:45 23,4 C 23,4 C 64 % 1010,8 hPa 0,0 mm 7,5 km/h (2 Bft) SW 225 16,2 C 4,4 km/h (1 Bft)
09.08.2015 20:50 23,2 C 23,1 C 65 % 1010,8 hPa 0,0 mm 7,8 km/h (2 Bft) W 270 16,2 C 8,3 km/h (2 Bft)
09.08.2015 20:55 23,1 C 23,0 C 65 % 1011,3 hPa 0,0 mm 7,3 km/h (2 Bft) SW 225 16,2 C 4,4 km/h (1 Bft)
09.08.2015 21:00 23,1 C 23,0 C 65 % 1011,3 hPa 0,0 mm 7,8 km/h (2 Bft) W-SW 247 16,2 C 3,9 km/h (1 Bft)
09.08.2015 21:05 23,1 C 23,0 C 65 % 1011,3 hPa 0,0 mm 7,3 km/h (2 Bft) W-SW 247 16,2 C 15,3 km/h (3 Bft)
09.08.2015 21:10 22,9 C 22,9 C 62 % 1011,3 hPa 0,0 mm 8,3 km/h (2 Bft) S 180 15,2 C 30,6 km/h (5 Bft)
09.08.2015 21:15 22,5 C 22,7 C 61 % 1011,8 hPa 0,0 mm 10,1 km/h (2 Bft) S-SW 202 14,6 C 11,4 km/h (2 Bft)
09.08.2015 21:20 22,3 C 22,3 C 60 % 1011,8 hPa 0,0 mm 12,7 km/h (3 Bft) NW 315 14,2 C 11,1 km/h (2 Bft)
09.08.2015 21:21 22,1 C 22,2 C 60 % 1011,8 hPa 0,0 mm 12,7 km/h (3 Bft) S-SW 202 14,0 C 6,0 km/h (2 Bft)
09.08.2015 21:24 22,1 C 22,2 C 60 % 1011,8 hPa 0,0 mm 12,7 km/h (3 Bft) S-SW 202 14,0 C 6,0 km/h (2 Bft)
09.08.2015 21:25 22,1 C 22,2 C 60 % 1011,8 hPa 0,0 mm 12,7 km/h (3 Bft) S-SW 202 14,0 C 6,0 km/h (2 Bft)
09.08.2015 21:30 22,0 C 22,0 C 61 % 1011,8 hPa 0,0 mm 8,3 km/h (2 Bft) W 270 14,1 C 12,4 km/h (3 Bft)
09.08.2015 21:35 21,9 C 21,9 C 61 % 1011,8 hPa 0,0 mm 4,9 km/h (1 Bft) W-NW 292 14,0 C 3,9 km/h (1 Bft)
09.08.2015 21:40 21,8 C 21,8 C 60 % 1011,8 hPa 0,0 mm 5,4 km/h (1 Bft) S-SO 157 13,7 C 6,2 km/h (2 Bft)
09.08.2015 21:45 21,6 C 21,6 C 61 % 1011,8 hPa 0,0 mm 3,6 km/h (1 Bft) W-SW 247 13,7 C 3,9 km/h (1 Bft)
09.08.2015 21:50 21,0 C 21,2 C 63 % 1011,8 hPa 0,0 mm 3,6 km/h (1 Bft) O-NO 67 13,7 C 7,5 km/h (2 Bft)
09.08.2015 21:55 21,0 C 21,0 C 63 % 1012,2 hPa 0,0 mm 5,4 km/h (1 Bft) SW 225 13,7 C 8,0 km/h (2 Bft)
09.08.2015 22:00 20,8 C 20,8 C 64 % 1012,2 hPa 0,0 mm 4,9 km/h (1 Bft) W-SW 247 13,7 C 4,9 km/h (1 Bft)
09.08.2015 22:05 20,8 C 20,7 C 65 % 1012,2 hPa 0,0 mm 3,6 km/h (1 Bft) O 90 14,0 C 0,0 km/h (0 Bft)
09.08.2015 22:10 20,5 C 20,5 C 67 % 1012,2 hPa 0,0 mm 3,4 km/h (1 Bft) S-SW 202 14,2 C 7,3 km/h (2 Bft)
09.08.2015 22:15 19,9 C 19,9 C 70 % 1013,1 hPa 0,7 mm 4,4 km/h (1 Bft) W-SW 247 14,3 C 11,9 km/h (2 Bft)
09.08.2015 22:20 18,3 C 18,2 C 76 % 1013,1 hPa 3,4 mm 6,5 km/h (2 Bft) NW 315 14,0 C 7,0 km/h (2 Bft)
09.08.2015 22:25 17,9 C 17,8 C 77 % 1013,1 hPa 4,1 mm 6,0 km/h (2 Bft) W 270 13,8 C 7,0 km/h (2 Bft)
09.08.2015 22:30 17,6 C 17,4 C 78 % 1013,1 hPa 0,0 mm 4,9 km/h (1 Bft) NW 315 13,7 C 6,7 km/h (2 Bft)
09.08.2015 22:35 17,5 C 17,3 C 78 % 1012,7 hPa 0,0 mm 3,6 km/h (1 Bft) S-SW 202 13,6 C 2,8 km/h (1 Bft)
09.08.2015 22:40 17,4 C 17,2 C 78 % 1012,7 hPa 0,0 mm 0,8 km/h (0 Bft) W-SW 247 13,5 C 4,7 km/h (1 Bft)
09.08.2015 22:45 17,3 C 17,1 C 79 % 1012,7 hPa 0,0 mm 2,8 km/h (1 Bft) S 180 13,6 C 9,6 km/h (2 Bft)
09.08.2015 22:50 17,2 C 17,0 C 80 % 1012,7 hPa 2,1 mm 6,5 km/h (2 Bft) S-SO 157 13,7 C 8,5 km/h (2 Bft)
09.08.2015 22:55 17,1 C 16,9 C 81 % 1012,9 hPa 0,7 mm 5,2 km/h (1 Bft) S 180 13,8 C 0,0 km/h (0 Bft)
09.08.2015 23:00 17,1 C 16,9 C 82 % 1012,9 hPa 0,0 mm 2,6 km/h (1 Bft) SW 225 14,0 C 19,2 km/h (3 Bft)
09.08.2015 23:01 17,1 C 16,9 C 82 % 1012,9 hPa 1,4 mm 2,6 km/h (1 Bft) S 180 14,0 C 3,1 km/h (1 Bft)
09.08.2015 23:05 17,1 C 16,9 C 82 % 1012,9 hPa 0,0 mm 2,6 km/h (1 Bft) S 180 14,0 C 3,1 km/h (1 Bft)
09.08.2015 23:10 17,0 C 16,9 C 84 % 1012,9 hPa 2,7 mm 3,6 km/h (1 Bft) S-SO 157 14,3 C 5,2 km/h (1 Bft)
09.08.2015 23:15 17,0 C 16,9 C 84 % 1013,1 hPa 0,7 mm 5,7 km/h (1 Bft) S-SW 202 14,3 C 7,0 km/h (2 Bft)
09.08.2015 23:20 17,1 C 17,0 C 85 % 1013,1 hPa 2,1 mm 7,8 km/h (2 Bft) SW 225 14,6 C 5,4 km/h (1 Bft)
09.08.2015 23:25 17,1 C 17,0 C 85 % 1013,1 hPa 1,4 mm 6,5 km/h (2 Bft) SW 225 14,6 C 4,7 km/h (1 Bft)
09.08.2015 23:30 17,0 C 16,9 C 85 % 1013,1 hPa 1,4 mm 4,7 km/h (1 Bft) S 180 14,5 C 12,4 km/h (3 Bft)
09.08.2015 23:35 17,0 C 16,9 C 85 % 1013,1 hPa 0,7 mm 5,7 km/h (1 Bft) S 180 14,5 C 0,0 km/h (0 Bft)
09.08.2015 23:40 17,0 C 16,9 C 85 % 1013,1 hPa 0,0 mm 3,6 km/h (1 Bft) W-SW 247 14,5 C 0,0 km/h (0 Bft)
09.08.2015 23:45 17,0 C 16,9 C 85 % 1013,1 hPa 0,0 mm 1,0 km/h (0 Bft) W 270 14,5 C 3,9 km/h (1 Bft)
09.08.2015 23:50 17,0 C 16,9 C 85 % 1013,1 hPa 0,7 mm 0,8 km/h (0 Bft) W-SW 247 14,5 C 0,0 km/h (0 Bft)
09.08.2015 23:55 16,9 C 16,8 C 85 % 1012,9 hPa 0,0 mm 1,0 km/h (0 Bft) S 180 14,4 C 4,9 km/h (1 Bft)
_ Min-Zeit 06:25 06:25 17:45 19:10 - 19:45 - - 05:10 23:50
Minimum _ 13,4 C 13,3 C 41 % 1010,1 hPa - 0,0 km/h (0 Bft) - - 10,0 C 0,0 km/h (0 Bft)
_ Max-Zeit 15:45 16:45 23:55 00:50 22:25 14:50 - - 13:55 21:10
Maximum _ 31,1 C 34,8 C 85 % 1014,9 hPa 4,1 mm 14,5 km/h
N-NO (3 Bft)
- - 17,6 C 30,6 km/h
S (5 Bft)
Durchschnitt _ 22,3 C 24,3 C 63 % 1012,7 hPa #22,0 mm 4,9 km/h (1 Bft) N-NO - 14,4 C 6,6 km/h (2 Bft)